period_start,C,m1,H,J0,J1,J2,J3,J4,J5,JA,JB,JC,JD,JJ,JK,JN,#
2018-03-19 00:05:00,0.02,2.83,0.00,12.23,15.37,18.85,14.65,47.52,1030.29,2071.00,2457.85,2475.00,2805.17,600.12,626.99,37.84,0000 0000 0000 0000 000000
2018-03-19 00:10:01,0.02,2.83,0.00,12.25,15.37,18.83,14.68,47.65,1030.29,2071.02,2457.04,2474.99,2805.00,600.10,626.81,37.89,0000 0000 0000 0000 000000
2018-03-19 00:15:02,0.03,2.83,0.00,12.27,15.37,18.84,14.59,47.62,1030.29,2071.02,2456.29,2474.80,2804.96,599.92,626.69,37.94,0000 0000 0000 0000 000000
2018-03-19 00:20:04,0.06,2.84,0.00,12.29,15.37,18.85,14.72,47.90,1030.20,2071.02,2455.65,2474.11,2804.36,600.14,626.59,37.99,0000 0000 0000 0000 000000
2018-03-19 00:25:05,0.02,2.84,0.00,12.32,15.38,18.84,14.70,47.86,1029.99,2071.03,2454.88,2473.99,2803.99,600.11,626.58,38.05,0000 0000 0000 0000 000000
2018-03-19 00:30:06,0.04,2.84,0.00,12.34,15.39,18.84,14.66,47.79,1029.84,2071.02,2454.05,2473.71,2803.52,600.19,626.59,38.10,0000 0000 0000 0000 000000
2018-03-19 00:35:07,0.05,2.84,0.00,12.36,15.41,18.86,14.68,47.82,1029.81,2071.02,2453.46,2473.06,2803.01,599.99,626.28,38.15,0000 0000 0000 0000 000000
2018-03-19 00:40:09,0.03,2.84,0.00,12.37,15.43,18.87,14.67,47.84,1029.86,2071.00,2452.72,2472.97,2802.47,600.29,626.58,38.20,0000 0000 0000 0000 000000
2018-03-19 00:45:10,0.05,2.85,0.00,12.39,15.44,18.85,14.65,47.89,1029.82,2071.00,2451.82,2472.29,2801.98,599.84,626.10,38.25,0000 0000 0000 0000 000000
2018-03-19 00:50:11,0.04,2.85,0.00,12.42,15.47,18.86,14.67,47.92,1029.81,2071.00,2450.89,2471.99,2801.19,600.05,626.17,38.30,0000 0000 0000 0000 000000
2018-03-19 00:55:12,0.10,2.86,0.00,12.45,15.49,18.89,14.69,47.85,1029.80,2071.00,2449.43,2471.11,2800.28,600.07,626.08,38.35,0000 0000 0000 0000 000000
2018-03-19 01:00:14,0.13,2.86,0.00,12.47,15.52,18.90,14.71,47.67,1029.80,2070.98,2447.31,2469.88,2798.74,600.25,626.26,38.40,0000 0000 0000 0000 000000
2018-03-19 01:05:15,0.11,2.87,0.00,12.50,15.54,18.92,14.66,47.64,1029.80,2070.98,2445.41,2468.78,2797.54,600.15,626.11,38.45,0000 0000 0000 0000 000000
2018-03-19 01:10:16,0.10,2.87,0.00,12.53,15.57,18.95,14.56,47.70,1029.79,2070.95,2443.58,2467.78,2796.30,599.81,625.69,38.50,0000 0000 0000 0000 000000
2018-03-19 01:15:18,0.05,2.88,0.00,12.56,15.59,18.95,14.69,47.79,1029.74,2070.80,2442.05,2466.98,2795.19,599.99,625.89,38.55,0000 0000 0000 0000 000000
2018-03-19 01:20:19,0.08,2.88,0.00,12.59,15.62,18.97,14.64,47.83,1029.67,2070.55,2440.78,2466.14,2794.33,599.94,625.61,38.60,0000 0000 0000 0000 000000
2018-03-19 01:25:20,0.03,2.88,0.00,12.63,15.65,18.99,14.61,47.98,1029.75,2070.25,2439.54,2465.57,2793.62,599.80,625.53,38.65,0000 0000 0000 0000 000000
2018-03-19 01:30:22,0.04,2.88,0.00,12.68,15.68,19.01,14.64,47.91,1029.75,2070.06,2438.39,2464.94,2792.63,600.09,625.58,38.70,0000 0000 0000 0000 000000
2018-03-19 01:35:23,0.08,2.89,0.00,12.72,15.72,19.03,14.57,47.93,1029.56,2070.01,2437.00,2464.11,2791.82,599.88,625.15,38.75,0000 0000 0000 0000 000000
2018-03-19 01:40:25,0.09,2.89,0.00,12.75,15.75,19.07,14.66,47.92,1029.37,2070.00,2435.59,2463.43,2790.89,600.08,625.24,38.80,0000 0000 0000 0000 000000
2018-03-19 01:45:26,0.05,2.90,0.00,12.79,15.78,19.09,14.68,47.97,1029.33,2070.00,2434.51,2462.83,2790.04,600.32,625.42,38.86,0000 0000 0000 0000 000000
2018-03-19 01:50:28,0.07,2.90,0.00,12.83,15.82,19.12,14.64,47.99,1029.32,2069.99,2433.36,2462.05,2789.20,599.99,624.92,38.91,0000 0000 0000 0000 000000
2018-03-19 01:55:29,0.08,2.90,0.00,12.87,15.86,19.15,14.61,47.95,1029.31,2069.92,2431.85,2461.31,2788.30,599.75,624.60,38.96,0000 0000 0000 0000 000000
2018-03-19 02:00:30,0.06,2.91,0.00,12.90,15.89,19.20,14.64,47.98,1029.31,2069.74,2430.50,2460.58,2787.32,600.03,624.82,39.01,0000 0000 0000 0000 000000
2018-03-19 02:05:31,0.01,2.91,0.00,12.93,15.93,19.22,14.64,47.94,1029.31,2069.26,2429.06,2459.82,2786.37,600.00,624.72,39.06,0000 0000 0000 0000 000000
2018-03-19 02:10:32,0.08,2.91,0.00,12.97,15.97,19.26,14.55,47.98,1029.31,2069.03,2427.55,2458.91,2785.32,599.89,624.53,39.11,0000 0000 0000 0000 000000
2018-03-19 02:15:34,0.09,2.92,0.00,13.02,16.00,19.28,14.65,48.09,1029.31,2069.01,2425.91,2458.02,2784.31,600.21,624.76,39.16,0000 0000 0000 0000 000000
2018-03-19 02:20:35,0.09,2.92,0.00,13.07,16.04,19.32,14.65,48.24,1029.31,2069.00,2424.27,2457.10,2783.21,600.23,624.66,39.21,0000 0000 0000 0000 000000
2018-03-19 02:25:36,0.10,2.93,0.00,13.11,16.08,19.35,14.67,48.17,1029.31,2068.99,2422.71,2456.16,2782.00,600.46,624.78,39.26,0000 0000 0000 0000 000000
2018-03-19 02:30:37,0.09,2.93,0.00,13.16,16.12,19.40,14.60,48.11,1029.27,2068.97,2421.14,2455.29,2780.96,600.26,624.41,39.31,0000 0000 0000 0000 000000
2018-03-19 02:35:38,0.08,2.94,0.00,13.22,16.15,19.43,14.56,48.13,1029.24,2068.84,2419.56,2454.47,2779.99,600.27,624.31,39.36,0000 0000 0000 0000 000000
2018-03-19 02:40:40,0.02,2.94,0.00,13.27,16.20,19.46,14.52,48.27,1029.20,2068.33,2418.05,2453.65,2779.01,599.58,623.49,39.41,0000 0000 0000 0000 000000
2018-03-19 02:45:40,0.05,2.94,0.00,13.32,16.24,19.49,14.59,48.18,1028.94,2068.07,2416.73,2452.97,2778.04,600.14,623.76,39.46,0000 0000 0000 0000 000000
2018-03-19 02:50:42,0.07,2.94,0.00,13.37,16.28,19.52,14.62,48.15,1028.83,2068.02,2415.65,2452.15,2777.16,600.70,623.85,39.51,0000 0000 0000 0000 000000
2018-03-19 02:55:43,0.07,2.95,0.00,13.41,16.32,19.57,14.56,48.24,1028.83,2068.00,2414.43,2451.62,2776.40,599.85,623.29,39.56,0000 0000 0000 0000 000000
2018-03-19 03:00:44,0.05,2.95,0.00,13.47,16.37,19.61,14.60,48.22,1028.83,2067.99,2413.39,2451.01,2775.74,600.25,623.52,39.61,0000 0000 0000 0000 000000
2018-03-19 03:05:45,0.06,2.95,0.00,13.52,16.41,19.67,14.60,48.23,1028.83,2067.98,2412.51,2450.47,2775.01,599.85,622.98,39.66,0000 0000 0000 0000 000000
2018-03-19 03:10:47,0.04,2.96,0.00,13.57,16.45,19.70,14.55,48.10,1028.83,2067.88,2411.47,2449.87,2774.15,599.99,622.95,39.71,0000 0000 0000 0000 000000
2018-03-19 03:15:48,0.02,2.96,0.00,13.64,16.49,19.74,14.53,48.11,1028.83,2067.35,2410.10,2449.05,2773.21,599.74,622.60,39.76,0000 0000 0000 0000 000000
2018-03-19 03:20:49,0.06,2.96,0.00,13.68,16.53,19.79,14.58,48.07,1028.83,2067.06,2408.83,2448.22,2772.33,600.08,622.89,39.81,0000 0000 0000 0000 000000
2018-03-19 03:25:50,0.05,2.96,0.00,13.74,16.58,19.84,14.50,48.08,1028.83,2067.01,2407.73,2447.79,2771.58,599.76,622.44,39.86,0000 0000 0000 0000 000000
2018-03-19 03:30:51,0.05,2.97,0.00,13.80,16.61,19.88,14.54,48.08,1028.83,2067.00,2406.74,2447.04,2770.95,599.98,622.50,39.92,0000 0000 0000 0000 000000
2018-03-19 03:35:53,0.06,2.97,0.00,13.86,16.66,19.92,14.57,48.02,1028.83,2066.99,2405.76,2446.56,2770.11,599.89,622.30,39.97,0000 0000 0000 0000 000000
2018-03-19 03:40:54,0.05,2.97,0.00,13.91,16.70,19.97,14.57,47.99,1028.83,2066.98,2404.69,2446.00,2769.47,599.89,622.19,40.02,0000 0000 0000 0000 000000
2018-03-19 03:45:55,0.05,2.98,0.00,13.97,16.74,20.01,14.57,47.92,1028.81,2066.93,2403.82,2445.32,2768.80,599.89,622.13,40.07,0000 0000 0000 0000 000000
2018-03-19 03:50:56,-0.02,2.98,0.00,14.02,16.79,20.06,14.51,47.94,1028.77,2066.32,2402.81,2444.85,2768.00,599.96,621.93,40.12,0000 0000 0000 0000 000000
2018-03-19 03:55:57,0.05,2.98,0.00,14.09,16.84,20.11,14.48,48.13,1028.77,2066.07,2401.84,2444.07,2767.16,600.00,621.95,40.17,0000 0000 0000 0000 000000
2018-03-19 04:00:58,0.07,2.98,0.00,14.15,16.89,20.15,14.50,48.11,1028.74,2066.00,2400.83,2443.60,2766.41,599.85,621.50,40.22,0000 0000 0000 0000 000000
2018-03-19 04:05:59,0.04,2.98,0.00,14.21,16.94,20.19,14.63,47.99,1028.68,2066.00,2399.87,2443.01,2765.84,600.52,622.10,40.27,0000 0000 0000 0000 000000
2018-03-19 04:11:00,0.07,2.99,0.00,14.27,16.98,20.24,14.54,48.07,1028.64,2065.98,2398.94,2442.32,2765.05,599.93,621.29,40.32,0000 0000 0000 0000 000000
2018-03-19 04:16:01,0.02,2.99,0.00,14.32,17.03,20.28,14.55,48.06,1028.44,2065.85,2398.06,2441.96,2764.40,599.68,620.98,40.37,0000 0000 0000 0000 000000
2018-03-19 04:21:02,0.01,2.99,0.00,14.37,17.08,20.34,14.50,48.10,1028.36,2065.42,2397.28,2441.21,2763.84,599.73,620.98,40.42,0000 0000 0000 0000 000000
2018-03-19 04:26:04,0.03,2.99,0.00,14.42,17.13,20.38,14.45,47.92,1028.34,2065.04,2396.36,2440.85,2763.06,599.45,620.38,40.47,0000 0000 0000 0000 000000
2018-03-19 04:31:05,0.07,2.99,0.00,14.46,17.19,20.44,14.57,48.04,1028.34,2065.00,2395.50,2440.06,2762.31,600.06,620.91,40.52,0000 0000 0000 0000 000000
2018-03-19 04:36:07,0.06,3.00,0.00,14.51,17.24,20.48,14.53,48.12,1028.33,2064.99,2394.59,2439.54,2761.64,599.71,620.48,40.57,0000 0000 0000 0000 000000
2018-03-19 04:41:08,0.04,3.00,0.00,14.57,17.29,20.54,14.47,47.97,1028.31,2064.95,2393.70,2438.99,2760.87,600.03,620.64,40.62,0000 0000 0000 0000 000000
2018-03-19 04:46:10,0.02,3.00,0.00,14.61,17.35,20.60,14.53,48.03,1028.32,2064.58,2392.84,2438.18,2760.05,599.99,620.46,40.67,0000 0000 0000 0000 000000
2018-03-19 04:51:11,0.01,3.00,0.00,14.67,17.40,20.65,14.60,48.17,1028.20,2064.10,2391.93,2437.72,2759.26,600.46,620.74,40.72,0000 0000 0000 0000 000000
2018-03-19 04:56:13,0.05,3.01,0.00,14.71,17.46,20.71,14.48,48.00,1027.99,2064.00,2390.97,2437.02,2758.56,600.24,620.41,40.77,0000 0000 0000 0000 000000
2018-03-19 05:01:14,0.07,3.01,0.00,14.76,17.51,20.74,14.51,48.03,1027.88,2063.99,2389.92,2436.44,2757.84,599.82,619.61,40.82,0000 0000 0000 0000 000000
2018-03-19 05:06:15,0.04,3.01,0.00,14.81,17.57,20.77,14.44,48.02,1027.85,2063.93,2388.97,2435.90,2757.03,599.78,619.50,40.88,0000 0000 0000 0000 000000
2018-03-19 05:11:17,0.02,3.01,0.00,14.86,17.62,20.83,14.43,47.96,1027.86,2063.62,2388.07,2435.10,2756.26,600.02,619.77,40.93,0000 0000 0000 0000 000000
2018-03-19 05:16:18,0.02,3.01,0.00,14.90,17.68,20.88,14.56,47.93,1027.85,2063.13,2387.29,2434.72,2755.63,600.22,619.79,40.98,0000 0000 0000 0000 000000
2018-03-19 05:21:19,0.05,3.02,0.00,14.95,17.73,20.93,14.49,47.88,1027.85,2063.01,2386.21,2434.02,2754.91,599.96,619.42,41.03,0000 0000 0000 0000 000000
2018-03-19 05:26:20,0.08,3.02,0.00,14.99,17.78,20.98,14.48,47.91,1027.85,2063.00,2385.32,2433.34,2754.08,600.04,619.41,41.08,0000 0000 0000 0000 000000
2018-03-19 05:31:21,0.05,3.02,0.00,15.05,17.83,21.02,14.43,47.95,1027.85,2062.99,2384.48,2432.88,2753.21,600.04,619.29,41.13,0000 0000 0000 0000 000000
2018-03-19 05:36:22,0.03,3.02,0.00,15.09,17.88,21.08,14.47,48.02,1027.85,2062.74,2383.59,2432.08,2752.57,599.90,618.89,41.18,0000 0000 0000 0000 000000
2018-03-19 05:41:24,0.00,3.02,0.00,15.13,17.93,21.14,14.51,47.97,1027.82,2062.10,2382.74,2431.58,2751.86,600.29,619.34,41.23,0000 0000 0000 0000 000000
2018-03-19 05:46:25,0.04,3.03,0.00,15.17,17.98,21.19,14.46,48.07,1027.84,2062.03,2381.86,2431.01,2751.05,599.90,618.88,41.28,0000 0000 0000 0000 000000
2018-03-19 05:51:26,0.06,3.03,0.00,15.23,18.03,21.23,14.44,47.78,1027.85,2062.00,2381.01,2430.37,2750.53,599.97,618.72,41.33,0000 0000 0000 0000 000000
2018-03-19 05:56:27,0.03,3.03,0.00,15.29,18.07,21.27,14.50,47.92,1027.85,2061.99,2380.15,2429.98,2749.92,599.86,618.53,41.38,0000 0000 0000 0000 000000
2018-03-19 06:01:28,0.06,3.03,0.00,15.33,18.12,21.32,14.46,47.89,1027.85,2061.89,2379.45,2429.21,2749.08,599.94,618.54,41.43,0000 0000 0000 0000 000000
2018-03-19 06:06:30,-0.02,3.03,0.00,15.37,18.17,21.38,14.45,47.98,1027.85,2061.24,2378.50,2428.79,2748.33,599.96,618.56,41.48,0000 0000 0000 0000 000000
2018-03-19 06:11:31,0.04,3.04,0.00,15.38,18.22,21.42,14.46,47.88,1027.84,2061.03,2377.67,2428.04,2747.64,600.01,618.55,41.53,0000 0000 0000 0000 000000
2018-03-19 06:16:32,0.06,3.04,0.00,15.33,18.26,21.47,14.43,47.94,1027.79,2061.00,2376.71,2427.47,2746.94,599.88,618.49,41.58,0000 0000 0000 0000 000000
2018-03-19 06:21:33,0.04,3.04,0.00,15.29,18.30,21.50,14.45,48.00,1027.70,2060.99,2375.75,2426.93,2746.09,600.22,618.87,41.63,0000 0000 0000 0000 000000
2018-03-19 06:26:35,0.07,3.05,0.00,15.25,18.33,21.54,14.43,48.00,1027.54,2060.98,2374.90,2426.10,2745.37,599.70,618.31,41.68,0000 0000 0000 0000 000000
2018-03-19 06:31:36,0.04,3.05,0.00,15.21,18.36,21.58,14.58,48.08,1027.44,2060.90,2373.93,2425.72,2744.77,600.24,618.82,41.73,0000 0000 0000 0000 000000
2018-03-19 06:36:37,0.03,3.05,0.00,15.19,18.39,21.59,14.47,47.94,1027.48,2060.72,2373.07,2425.03,2744.03,600.07,618.73,41.79,0000 0000 0000 0000 000000
2018-03-19 06:41:39,0.03,3.05,0.00,15.18,18.41,21.66,14.55,47.98,1027.39,2060.25,2372.19,2424.53,2743.30,600.30,619.04,41.84,0000 0000 0000 0000 000000
2018-03-19 06:46:41,0.03,3.05,0.00,15.21,18.43,21.69,14.53,47.98,1027.37,2060.07,2371.26,2424.00,2742.64,599.86,618.54,41.89,0000 0000 0000 0000 000000
2018-03-19 06:51:42,0.06,3.06,0.00,15.23,18.45,21.70,14.44,47.92,1027.36,2060.03,2370.48,2423.29,2741.98,599.94,618.46,41.94,0000 0000 0000 0000 000000
2018-03-19 06:56:43,0.03,3.06,0.00,15.28,18.47,21.71,14.46,47.99,1027.36,2060.00,2369.80,2422.94,2741.14,600.24,618.66,41.99,0000 0000 0000 0000 000000
2018-03-19 07:01:45,0.06,3.06,0.00,15.32,18.49,21.71,14.45,47.98,1027.36,2060.00,2369.01,2422.21,2740.67,599.72,618.16,42.04,0000 0000 0000 0000 000000
2018-03-19 07:06:46,0.04,3.06,0.00,15.36,18.50,21.72,14.47,47.81,1027.36,2060.00,2368.18,2421.89,2740.00,600.01,618.35,42.09,0000 0000 0000 0000 000000
2018-03-19 07:11:47,0.07,3.07,0.00,15.42,18.52,21.74,14.60,48.06,1027.34,2059.99,2367.40,2421.11,2739.21,600.31,618.39,42.14,0000 0000 0000 0000 000000
2018-03-19 07:16:49,0.06,3.07,0.00,15.47,18.54,21.75,14.44,47.99,1027.28,2059.98,2366.69,2420.60,2738.48,599.97,617.96,42.19,0000 0000 0000 0000 000000
2018-03-19 07:21:50,0.03,3.07,0.00,15.53,18.56,21.80,14.44,47.97,1027.19,2059.90,2365.77,2420.00,2737.79,599.98,617.81,42.24,0000 0000 0000 0000 000000
2018-03-19 07:26:51,0.06,3.08,0.00,15.59,18.57,21.83,14.41,47.88,1027.13,2059.86,2364.96,2419.31,2737.03,599.95,617.66,42.29,0000 0000 0000 0000 000000
2018-03-19 07:31:52,0.00,3.08,0.00,15.64,18.59,21.85,14.47,47.90,1027.12,2059.51,2364.17,2418.97,2736.23,600.31,617.84,42.34,0000 0000 0000 0000 000000
2018-03-19 07:36:54,0.03,3.08,0.00,15.69,18.62,21.86,14.50,47.81,1027.04,2059.15,2363.48,2418.23,2735.88,599.82,617.15,42.39,0000 0000 0000 0000 000000
2018-03-19 07:41:55,0.03,3.08,0.00,15.74,18.64,21.91,14.48,47.77,1026.94,2059.03,2362.54,2417.96,2735.08,600.02,617.24,42.44,0000 0000 0000 0000 000000
2018-03-19 07:46:56,0.06,3.08,0.00,15.80,18.67,21.93,14.44,47.73,1026.89,2059.03,2361.78,2417.19,2734.51,600.17,617.24,42.49,0000 0000 0000 0000 000000
2018-03-19 07:51:57,0.02,3.09,0.00,15.85,18.70,21.96,14.38,47.82,1026.89,2059.01,2360.97,2416.96,2734.00,600.16,617.09,42.54,0000 0000 0000 0000 000000
2018-03-19 07:56:59,0.07,3.09,0.00,15.92,18.73,22.01,14.48,47.68,1026.88,2059.00,2360.12,2416.20,2733.20,600.11,616.99,42.59,0000 0000 0000 0000 000000
2018-03-19 08:02:00,0.05,3.09,0.00,15.98,18.77,22.02,14.38,47.65,1026.87,2058.99,2359.33,2415.88,2732.68,599.68,616.35,42.64,0000 0000 0000 0000 000000
2018-03-19 08:07:01,0.06,3.09,0.00,16.04,18.81,22.06,14.46,47.76,1026.87,2058.98,2358.45,2415.10,2731.96,600.28,616.73,42.69,0000 0000 0000 0000 000000
2018-03-19 08:12:02,0.06,3.10,0.00,16.09,18.85,22.08,14.48,47.73,1026.87,2058.96,2357.63,2414.67,2731.13,600.27,616.58,42.75,0000 0000 0000 0000 000000
2018-03-19 08:17:04,-0.01,3.10,0.00,16.16,18.88,22.11,14.38,47.64,1026.87,2058.61,2356.91,2414.01,2730.41,600.05,616.48,42.80,0000 0000 0000 0000 000000
2018-03-19 08:22:05,0.03,3.10,0.00,16.24,18.93,22.14,14.41,47.81,1026.87,2058.09,2356.00,2413.33,2729.83,600.16,616.18,42.85,0000 0000 0000 0000 000000
2018-03-19 08:27:06,0.04,3.10,0.00,16.34,18.97,22.14,14.41,47.68,1026.87,2058.02,2355.09,2412.87,2729.02,600.16,616.03,42.90,0000 0000 0000 0000 000000
2018-03-19 08:32:08,0.07,3.11,0.00,16.47,19.02,22.15,14.36,47.73,1026.87,2058.00,2354.18,2412.07,2728.19,599.72,615.29,42.95,0000 0000 0000 0000 000000
2018-03-19 08:37:09,0.07,3.11,0.00,16.64,19.06,22.21,14.35,47.65,1026.88,2057.98,2353.41,2411.50,2727.47,599.88,615.15,43.00,0000 0000 0000 0000 000000
2018-03-19 08:42:10,0.05,3.11,0.00,16.83,19.11,22.26,14.35,47.60,1026.88,2057.95,2352.32,2410.90,2726.76,600.11,615.00,43.05,0000 0000 0000 0000 000000
2018-03-19 08:47:12,-0.01,3.11,0.00,17.00,19.16,22.32,14.35,47.48,1026.87,2057.39,2351.34,2410.07,2725.90,599.88,614.45,43.10,0000 0000 0000 0000 000000
2018-03-19 08:52:13,0.06,3.11,0.00,17.09,19.20,22.38,14.27,47.47,1026.87,2057.09,2350.34,2409.38,2725.02,599.61,613.81,43.15,0000 0000 0000 0000 000000
2018-03-19 08:57:14,0.05,3.12,0.00,17.05,19.25,22.46,14.39,47.44,1026.87,2057.02,2349.45,2408.78,2724.12,600.42,614.81,43.20,0000 0000 0000 0000 000000
2018-03-19 09:02:16,0.06,3.12,0.00,16.94,19.29,22.55,14.32,47.54,1026.87,2057.00,2348.66,2408.03,2723.21,599.96,614.53,43.25,0000 0000 0000 0000 000000
2018-03-19 09:07:17,0.06,3.12,0.00,16.84,19.33,22.61,14.26,47.48,1026.87,2056.98,2347.95,2407.29,2722.53,599.93,614.69,43.30,0000 0000 0000 0000 000000
2018-03-19 09:12:18,0.02,3.13,0.00,16.76,19.37,22.66,14.41,47.52,1026.87,2056.83,2347.26,2406.89,2721.64,599.89,615.00,43.35,0000 0000 0000 0000 000000
2018-03-19 09:17:19,-0.00,3.13,0.00,16.71,19.41,22.69,14.38,47.60,1026.87,2056.16,2346.30,2406.07,2720.87,600.07,615.21,43.40,0000 0000 0000 0000 000000
2018-03-19 09:22:21,0.07,3.13,0.00,16.65,19.43,22.74,14.44,47.63,1026.87,2056.02,2345.29,2405.36,2720.02,600.04,615.33,43.45,0000 0000 0000 0000 000000
2018-03-19 09:27:22,0.06,3.13,0.00,16.62,19.46,22.78,14.36,47.68,1026.87,2056.00,2344.25,2404.84,2719.13,599.78,615.19,43.50,0000 0000 0000 0000 000000
2018-03-19 09:32:23,0.06,3.14,0.00,16.59,19.48,22.83,14.38,47.61,1026.86,2056.00,2343.51,2404.06,2718.37,599.93,615.35,43.55,0000 0000 0000 0000 000000
2018-03-19 09:37:25,0.07,3.14,0.00,16.58,19.50,22.84,14.41,47.64,1026.83,2055.98,2342.64,2403.49,2717.62,600.03,615.42,43.61,0000 0000 0000 0000 000000
2018-03-19 09:42:26,0.04,3.14,0.00,16.56,19.52,22.89,14.35,47.67,1026.69,2055.98,2341.72,2402.95,2716.85,599.71,615.05,43.66,0000 0000 0000 0000 000000
2018-03-19 09:47:28,0.07,3.15,0.00,16.54,19.54,22.90,14.40,47.58,1026.61,2055.87,2340.60,2402.11,2716.05,600.05,615.26,43.71,0000 0000 0000 0000 000000
2018-03-19 09:52:29,0.06,3.15,0.00,16.54,19.54,22.92,14.40,47.57,1026.44,2055.74,2339.64,2401.55,2715.31,600.16,615.37,43.76,0000 0000 0000 0000 000000
2018-03-19 09:57:30,0.01,3.15,0.00,16.54,19.57,22.98,14.34,47.48,1026.47,2055.39,2338.69,2400.99,2714.62,599.89,615.26,43.81,0000 0000 0000 0000 000000
2018-03-19 10:02:31,0.06,3.15,0.00,16.54,19.57,22.99,14.43,47.46,1026.43,2055.42,2337.90,2400.30,2713.98,599.87,615.03,43.86,0000 0000 0000 0000 000000
2018-03-19 10:07:33,0.02,3.15,0.00,16.54,19.59,23.00,14.47,47.50,1026.44,2055.20,2337.04,2399.92,2713.17,600.32,615.56,43.91,0000 0000 0000 0000 000000
2018-03-19 10:12:34,0.07,3.16,0.00,16.54,19.59,23.01,14.43,47.47,1026.45,2055.05,2336.10,2399.09,2712.48,600.22,615.40,43.96,0000 0000 0000 0000 000000
2018-03-19 10:17:36,0.05,3.16,0.00,16.52,19.62,23.03,14.41,47.52,1026.42,2055.03,2335.13,2398.50,2711.92,600.22,615.43,44.01,0000 0000 0000 0000 000000
2018-03-19 10:22:37,0.05,3.16,0.00,16.53,19.62,23.03,14.38,47.49,1026.40,2055.02,2334.27,2398.00,2711.09,599.78,614.93,44.06,0000 0000 0000 0000 000000
2018-03-19 10:27:38,0.08,3.17,0.00,16.53,19.63,23.05,14.42,47.42,1026.41,2055.02,2333.34,2397.29,2710.36,599.99,615.21,44.11,0000 0000 0000 0000 000000
2018-03-19 10:32:39,0.04,3.17,0.00,16.54,19.64,23.05,14.48,47.42,1026.41,2055.01,2332.32,2396.90,2709.86,600.40,615.67,44.16,0000 0000 0000 0000 000000
2018-03-19 10:37:41,0.07,3.17,0.00,16.52,19.64,23.07,14.42,47.62,1026.40,2055.01,2331.55,2396.13,2709.06,599.94,615.36,44.21,0000 0000 0000 0000 000000
2018-03-19 10:42:42,0.05,3.17,0.00,16.50,19.65,23.09,14.49,47.63,1026.39,2055.00,2330.66,2395.82,2708.47,600.20,615.71,44.26,0000 0000 0000 0000 000000
2018-03-19 10:47:43,0.04,3.18,0.00,16.51,19.67,23.11,14.44,47.59,1026.38,2055.00,2329.97,2395.05,2707.86,600.27,615.58,44.31,0000 0000 0000 0000 000000
2018-03-19 10:52:44,0.06,3.18,0.00,16.50,19.67,23.11,14.43,47.64,1026.38,2055.00,2329.16,2394.71,2707.08,600.10,615.37,44.36,0000 0000 0000 0000 000000
2018-03-19 10:57:45,0.06,3.18,0.00,16.49,19.67,23.13,14.45,47.48,1026.38,2055.00,2328.33,2394.03,2706.49,600.38,615.67,44.41,0000 0000 0000 0000 000000
2018-03-19 11:02:46,0.07,3.19,0.00,16.47,19.69,23.15,14.38,47.50,1026.38,2055.00,2327.56,2393.43,2705.73,599.80,615.17,44.46,0000 0000 0000 0000 000000
2018-03-19 11:07:48,0.05,3.19,0.00,16.48,19.69,23.17,14.41,47.51,1026.38,2055.00,2326.55,2392.83,2704.85,600.15,615.46,44.51,0000 0000 0000 0000 000000
2018-03-19 11:12:49,0.12,3.20,0.00,16.46,19.69,23.13,14.36,47.48,1026.38,2054.99,2325.06,2391.78,2703.69,600.06,615.41,44.57,0000 0000 0000 0000 000000
2018-03-19 11:17:50,0.11,3.20,0.00,16.44,19.69,23.15,14.42,47.54,1026.38,2054.98,2323.55,2390.71,2702.41,599.89,615.31,44.62,0000 0000 0000 0000 000000
2018-03-19 11:22:52,0.10,3.21,0.00,16.44,19.69,23.14,14.42,47.52,1026.38,2054.99,2321.87,2389.76,2701.40,599.89,615.16,44.67,0000 0000 0000 0000 000000
2018-03-19 11:27:53,0.10,3.21,0.00,16.44,19.69,23.15,14.47,47.59,1026.38,2054.98,2320.53,2388.72,2700.12,600.07,615.53,44.72,0000 0000 0000 0000 000000
2018-03-19 11:32:54,0.12,3.22,0.00,16.41,19.69,23.16,14.43,47.55,1026.37,2054.97,2318.89,2387.60,2698.73,599.96,615.41,44.77,0000 0000 0000 0000 000000
2018-03-19 11:37:55,0.10,3.22,0.00,16.39,19.69,23.13,14.41,47.54,1026.33,2054.96,2317.26,2386.58,2697.58,599.99,615.46,44.82,0000 0000 0000 0000 000000
2018-03-19 11:42:56,0.14,3.23,0.00,16.39,19.69,23.15,14.36,47.51,1026.30,2054.98,2315.20,2385.27,2696.10,599.71,615.15,44.87,0000 0000 0000 0000 000000
2018-03-19 11:47:58,0.16,3.24,0.00,16.38,19.68,23.11,14.38,47.50,1026.23,2054.97,2312.99,2383.75,2694.44,599.86,615.36,44.92,0000 0000 0000 0000 000000
2018-03-19 11:52:59,0.16,3.25,0.00,16.35,19.67,23.11,14.36,47.58,1026.14,2054.97,2310.58,2382.20,2692.64,599.64,615.08,44.97,0000 0000 0000 0000 000000
2018-03-19 11:58:01,0.15,3.26,0.00,16.34,19.67,23.12,14.46,47.57,1026.16,2054.98,2308.42,2380.72,2691.00,599.97,615.45,45.02,0000 0000 0000 0000 000000
2018-03-19 12:03:02,0.14,3.26,0.00,16.32,19.67,23.08,14.36,47.51,1026.21,2054.98,2306.22,2379.38,2689.46,599.57,614.99,45.07,0000 0000 0000 0000 000000
2018-03-19 12:08:04,0.15,3.27,0.00,16.30,19.66,23.11,14.42,47.73,1026.00,2054.99,2304.05,2377.91,2687.79,600.12,615.58,45.12,0000 0000 0000 0000 000000
2018-03-19 12:13:05,0.13,3.28,0.00,16.29,19.64,23.14,14.41,47.77,1026.00,2054.99,2302.16,2376.60,2686.41,600.06,615.55,45.17,0000 0000 0000 0000 000000
2018-03-19 12:18:06,0.13,3.29,0.00,16.27,19.64,23.09,14.43,47.62,1026.00,2054.99,2300.10,2375.30,2684.88,599.75,615.29,45.22,0000 0000 0000 0000 000000
2018-03-19 12:23:07,0.12,3.29,0.00,16.24,19.64,23.04,14.44,47.43,1025.98,2054.99,2298.27,2373.97,2683.41,600.43,615.94,45.27,0000 0000 0000 0000 000000
2018-03-19 12:28:09,0.12,3.30,0.00,16.22,19.62,23.03,14.39,47.63,1025.94,2054.99,2296.55,2372.86,2682.03,599.96,615.57,45.32,0000 0000 0000 0000 000000
2018-03-19 12:33:10,0.14,3.30,0.00,16.21,19.62,23.03,14.36,47.59,1025.97,2054.99,2294.79,2371.66,2680.65,599.65,615.28,45.37,0000 0000 0000 0000 000000
2018-03-19 12:38:11,0.10,3.31,0.00,16.19,19.61,23.02,14.46,47.64,1025.90,2054.99,2293.28,2370.64,2679.47,600.11,615.74,45.42,0000 0000 0000 0000 000000
2018-03-19 12:43:13,0.11,3.32,0.00,16.17,19.59,23.00,14.47,47.57,1025.90,2054.99,2291.65,2369.62,2678.36,600.36,616.04,45.48,0000 0000 0000 0000 000000
2018-03-19 12:48:14,0.11,3.32,0.00,16.14,19.59,22.97,14.43,47.65,1025.90,2054.99,2290.10,2368.55,2677.02,599.86,615.60,45.53,0000 0000 0000 0000 000000
2018-03-19 12:53:15,0.11,3.33,0.00,16.14,19.57,22.95,14.40,47.65,1025.90,2054.99,2288.62,2367.60,2675.86,599.99,615.73,45.58,0000 0000 0000 0000 000000
2018-03-19 12:58:16,0.10,3.33,0.00,16.13,19.56,22.99,14.37,47.64,1025.90,2054.99,2287.10,2366.73,2674.70,599.85,615.59,45.63,0000 0000 0000 0000 000000